| time (UTC) | temp F | wind direction | speed MPH | gust MPH | rain 1hr in | rain 24hr in | rain mn in | humidity % | barometer mb |
| 20260507114508 | 33 | 254 | 1.0 | 5.0 | 0.00 | 0.13 | 0.01 | 93 | 1018.3 |
| 20260507113033 | 34 | 266 | 1.0 | 7.0 | 0.00 | 0.13 | 0.01 | 93 | 1018.3 |
| 20260507111518 | 34 | 283 | 2.0 | 6.0 | 0.00 | 0.13 | 0.01 | 93 | 1018.6 |
| 20260507110026 | 34 | 238 | 1.0 | 4.0 | 0.00 | 0.13 | 0.01 | 93 | 1018.7 |
| 20260507104525 | 34 | 294 | 1.0 | 6.0 | 0.00 | 0.13 | 0.01 | 93 | 1018.8 |
| 20260507103009 | 34 | 259 | 1.0 | 5.0 | 0.00 | 0.13 | 0.01 | 93 | 1018.9 |
| 20260507101516 | 34 | 257 | 1.0 | 5.0 | 0.00 | 0.14 | 0.01 | 93 | 1018.9 |
| 20260507100034 | 34 | 253 | 2.0 | 7.0 | 0.00 | 0.15 | 0.01 | 93 | 1019.1 |
| 20260507094524 | 34 | 263 | 2.0 | 7.0 | 0.00 | 0.19 | 0.01 | 93 | 1019.3 |
| 20260507093024 | 34 | 277 | 2.0 | 6.0 | 0.00 | 0.20 | 0.01 | 93 | 1019.7 |
| 20260507091513 | 34 | 261 | 1.0 | 4.0 | 0.01 | 0.21 | 0.01 | 93 | 1019.7 |
| 20260507090016 | 34 | 246 | 2.0 | 6.0 | 0.01 | 0.21 | 0.01 | 93 | 1019.8 |
| 20260507084524 | 34 | 243 | 2.0 | 8.0 | 0.01 | 0.22 | 0.01 | 93 | 1019.9 |
| 20260507083026 | 35 | 233 | 2.0 | 6.0 | 0.01 | 0.22 | 0.01 | 93 | 1020.0 |
| 20260507081533 | 35 | 258 | 1.0 | 6.0 | 0.00 | 0.21 | 0.00 | 93 | 1020.2 |
| 20260507080016 | 35 | 259 | 3.0 | 4.0 | 0.00 | 0.21 | 0.00 | 93 | 1020.4 |
| 20260507074529 | 35 | 250 | 2.0 | 6.0 | 0.00 | 0.21 | 0.00 | 93 | 1020.5 |
| 20260507073004 | 35 | 262 | 0.0 | 3.0 | 0.00 | 0.22 | 0.00 | 92 | 1020.7 |
| 20260507071508 | 35 | 248 | 1.0 | 3.0 | 0.00 | 0.25 | 0.00 | 93 | 1020.9 |
| 20260507070014 | 36 | 257 | 1.0 | 3.0 | 0.00 | 0.27 | 0.00 | 92 | 1021.1 |
| 20260507064518 | 36 | 254 | 2.0 | 3.0 | 0.00 | 0.28 | 0.00 | 93 | 1021.3 |
| 20260507063021 | 36 | 257 | 1.0 | 2.0 | 0.00 | 0.32 | 0.00 | 92 | 1021.4 |
| 20260507061506 | 37 | 277 | 0.0 | 2.0 | 0.00 | 0.34 | 0.00 | 92 | 1021.7 |
| 20260507060010 | 37 | 257 | 0.0 | 2.0 | 0.00 | 0.36 | 0.00 | 92 | 1021.7 |
| 20260507054516 | 38 | 294 | 0.0 | 2.0 | 0.00 | 0.39 | 0.00 | 92 | 1021.7 |
| 20260507053023 | 39 | 294 | 0.0 | 2.0 | 0.00 | 0.41 | 0.00 | 92 | 1021.7 |
| 20260507051522 | 39 | 294 | 0.0 | 2.0 | 0.00 | 0.43 | 0.00 | 92 | 1021.8 |
| 20260507050007 | 39 | 306 | 0.0 | 2.0 | 0.00 | 0.45 | 0.00 | 92 | 1021.9 |
| 20260507044516 | 39 | 279 | 0.0 | 2.0 | 0.00 | 0.45 | 0.45 | 92 | 1021.9 |
| 20260507043017 | 40 | 243 | 0.0 | 2.0 | 0.00 | 0.45 | 0.45 | 92 | 1021.8 |
| 20260507041520 | 40 | 243 | 0.0 | 3.0 | 0.00 | 0.45 | 0.45 | 92 | 1022.1 |
| 20260507040026 | 39 | 352 | 0.0 | 2.0 | 0.00 | 0.45 | 0.45 | 92 | 1022.0 |
| 20260507034514 | 39 | 352 | 0.0 | 2.0 | 0.00 | 0.45 | 0.45 | 92 | 1022.1 |
| 20260507033016 | 40 | 352 | 0.0 | 2.0 | 0.00 | 0.45 | 0.45 | 91 | 1021.9 |
| 20260507031519 | 40 | 352 | 0.0 | 2.0 | 0.00 | 0.45 | 0.45 | 91 | 1021.8 |
| 20260507030023 | 41 | 352 | 0.0 | 0.0 | 0.00 | 0.45 | 0.45 | 91 | 1021.8 |
| 20260507024525 | 41 | 352 | 0.0 | 2.0 | 0.00 | 0.45 | 0.45 | 91 | 1021.5 |
| 20260507023016 | 42 | 352 | 0.0 | 2.0 | 0.00 | 0.45 | 0.45 | 91 | 1021.3 |
| 20260507021520 | 42 | 352 | 0.0 | 0.0 | 0.00 | 0.45 | 0.45 | 91 | 1021.0 |
| 20260507020025 | 43 | 352 | 0.0 | 0.0 | 0.00 | 0.45 | 0.45 | 90 | 1020.9 |
| 20260507014526 | 43 | 352 | 0.0 | 0.0 | 0.00 | 0.45 | 0.45 | 90 | 1020.7 |
| 20260507013025 | 43 | 352 | 0.0 | 2.0 | 0.00 | 0.45 | 0.45 | 90 | 1020.7 |
| 20260507011514 | 44 | 352 | 1.0 | 2.0 | 0.00 | 0.45 | 0.45 | 90 | 1020.8 |
| 20260507010030 | 44 | 341 | 2.0 | 4.0 | 0.01 | 0.45 | 0.45 | 90 | 1021.0 |
| 20260507004526 | 44 | 347 | 2.0 | 5.0 | 0.01 | 0.45 | 0.45 | 89 | 1020.8 |
| 20260507003028 | 45 | 338 | 2.0 | 3.0 | 0.03 | 0.45 | 0.45 | 89 | 1020.8 |
| 20260507001530 | 45 | 286 | 0.0 | 0.0 | 0.03 | 0.45 | 0.45 | 88 | 1020.6 |
| 20260507000020 | 45 | 286 | 0.0 | 0.0 | 0.02 | 0.44 | 0.44 | 88 | 1020.8 |
| 20260506234508 | 46 | 286 | 0.0 | 2.0 | 0.02 | 0.44 | 0.44 | 86 | 1020.8 |
| 20260506233025 | 46 | 234 | 0.0 | 2.0 | 0.00 | 0.42 | 0.42 | 85 | 1020.8 |
| 20260506231509 | 46 | 202 | 0.0 | 2.0 | 0.00 | 0.42 | 0.42 | 83 | 1020.6 |
| 20260506230017 | 46 | 198 | 2.0 | 6.0 | 0.00 | 0.42 | 0.42 | 82 | 1020.5 |
| 20260506224527 | 46 | 181 | 1.0 | 5.0 | 0.00 | 0.42 | 0.42 | 81 | 1020.4 |
| 20260506223006 | 47 | 140 | 1.0 | 3.0 | 0.00 | 0.42 | 0.42 | 81 | 1020.5 |
| 20260506221507 | 47 | 188 | 1.0 | 3.0 | 0.00 | 0.42 | 0.42 | 83 | 1020.1 |
| 20260506220028 | 46 | 114 | 0.0 | 2.0 | 0.00 | 0.42 | 0.42 | 84 | 1020.4 |
| 20260506214519 | 46 | 144 | 0.0 | 4.0 | 0.00 | 0.42 | 0.42 | 86 | 1020.3 |
| 20260506213022 | 45 | 135 | 2.0 | 4.0 | 0.00 | 0.42 | 0.42 | 86 | 1020.5 |
| 20260506211527 | 46 | 124 | 2.0 | 4.0 | 0.00 | 0.42 | 0.42 | 87 | 1020.6 |
| 20260506210013 | 45 | 140 | 2.0 | 7.0 | 0.00 | 0.42 | 0.42 | 87 | 1020.6 |
| 20260506204518 | 46 | 102 | 3.0 | 7.0 | 0.01 | 0.42 | 0.42 | 89 | 1020.7 |
| 20260506203026 | 45 | 130 | 3.0 | 6.0 | 0.01 | 0.42 | 0.42 | 90 | 1020.9 |
| 20260506201522 | 44 | 111 | 2.0 | 8.0 | 0.01 | 0.42 | 0.42 | 90 | 1021.3 |
| 20260506200010 | 44 | 165 | 2.0 | 5.0 | 0.01 | 0.42 | 0.42 | 90 | 1021.1 |
| 20260506194517 | 44 | 136 | 2.0 | 6.0 | 0.00 | 0.41 | 0.41 | 90 | 1021.2 |
| 20260506193020 | 43 | 134 | 4.0 | 7.0 | 0.00 | 0.41 | 0.41 | 90 | 1021.2 |
| 20260506191524 | 43 | 125 | 1.0 | 8.0 | 0.01 | 0.41 | 0.41 | 91 | 1021.2 |
| 20260506190027 | 44 | 138 | 2.0 | 8.0 | 0.01 | 0.41 | 0.41 | 91 | 1021.3 |
| 20260506184530 | 43 | 131 | 5.0 | 10.0 | 0.01 | 0.41 | 0.41 | 91 | 1021.4 |
| 20260506183029 | 43 | 169 | 4.0 | 8.0 | 0.02 | 0.41 | 0.41 | 92 | 1021.5 |
| 20260506181522 | 42 | 136 | 4.0 | 8.0 | 0.01 | 0.40 | 0.40 | 93 | 1021.6 |
| 20260506180024 | 42 | 115 | 3.0 | 7.0 | 0.01 | 0.40 | 0.40 | 93 | 1021.7 |
| 20260506174510 | 41 | 114 | 1.0 | 7.0 | 0.01 | 0.40 | 0.40 | 93 | 1021.7 |
| 20260506173004 | 41 | 89 | 2.0 | 6.0 | 0.00 | 0.39 | 0.39 | 93 | 1021.7 |
| 20260506171503 | 40 | 69 | 2.0 | 5.0 | 0.00 | 0.39 | 0.39 | 93 | 1021.6 |
| 20260506170006 | 40 | 57 | 1.0 | 5.0 | 0.00 | 0.39 | 0.39 | 93 | 1021.4 |
| 20260506164514 | 40 | 20 | 2.0 | 7.0 | 0.00 | 0.39 | 0.39 | 93 | 1021.3 |
| 20260506163012 | 39 | 72 | 1.0 | 6.0 | 0.01 | 0.39 | 0.39 | 93 | 1021.3 |
| 20260506161504 | 39 | 92 | 2.0 | 6.0 | 0.01 | 0.39 | 0.39 | 93 | 1021.3 |
| 20260506160006 | 39 | 26 | 3.0 | 5.0 | 0.03 | 0.39 | 0.39 | 93 | 1021.1 |
| 20260506154514 | 39 | 102 | 2.0 | 5.0 | 0.04 | 0.39 | 0.39 | 93 | 1021.0 |
| 20260506153010 | 40 | 347 | 2.0 | 5.0 | 0.04 | 0.38 | 0.38 | 93 | 1020.8 |
| 20260506151518 | 40 | 97 | 1.0 | 5.0 | 0.04 | 0.38 | 0.38 | 93 | 1020.6 |
| 20260506150004 | 40 | 103 | 1.0 | 4.0 | 0.02 | 0.36 | 0.36 | 93 | 1020.7 |
| 20260506144507 | 40 | 118 | 2.0 | 5.0 | 0.01 | 0.35 | 0.35 | 93 | 1020.6 |
| 20260506143009 | 39 | 139 | 2.0 | 6.0 | 0.01 | 0.34 | 0.34 | 93 | 1020.5 |
| 20260506141512 | 40 | 132 | 3.0 | 8.0 | 0.01 | 0.34 | 0.34 | 93 | 1020.4 |
| 20260506140030 | 40 | 111 | 4.0 | 7.0 | 0.01 | 0.34 | 0.34 | 93 | 1020.5 |
| 20260506134505 | 39 | 121 | 2.0 | 4.0 | 0.01 | 0.34 | 0.34 | 93 | 1020.5 |
| 20260506133007 | 39 | 107 | 2.0 | 4.0 | 0.00 | 0.33 | 0.33 | 93 | 1020.1 |
| 20260506131534 | 39 | 113 | 2.0 | 6.0 | 0.00 | 0.33 | 0.33 | 93 | 1020.2 |
| 20260506130032 | 39 | 98 | 1.0 | 5.0 | 0.00 | 0.33 | 0.33 | 93 | 1019.7 |
| 20260506124527 | 39 | 48 | 0.0 | 0.0 | 0.00 | 0.33 | 0.33 | 93 | 1019.8 |
| 20260506123006 | 39 | 46 | 0.0 | 2.0 | 0.00 | 0.33 | 0.33 | 93 | 1019.4 |
| 20260506121509 | 39 | 59 | 0.0 | 0.0 | 0.00 | 0.33 | 0.33 | 93 | 1019.1 |
| 20260506120028 | 38 | 70 | 0.0 | 0.0 | 0.00 | 0.33 | 0.33 | 93 | 1018.9 |